| time (UTC) | temp C | wind direction | speed KPH | gust KPH | rain 1hr cm | rain 24hr cm | rain mn cm | humidity % | barometer mb |
| 20260508065512 | 16 | 177 | 1.6 | 11.3 | 0.00 | 0.00 | 0.00 | 91 | 1017.4 |
| 20260508065016 | 16 | 158 | 4.8 | 11.3 | 0.00 | 0.00 | 0.00 | 91 | 1017.4 |
| 20260508064532 | 16 | 112 | 3.2 | 9.7 | 0.00 | 0.00 | 0.00 | 91 | 1017.5 |
| 20260508064013 | 16 | 101 | 3.2 | 12.9 | 0.00 | 0.00 | 0.00 | 90 | 1017.5 |
| 20260508063512 | 16 | 0 | 4.8 | 16.1 | 0.00 | 0.00 | 0.00 | 91 | 1017.5 |
| 20260508063036 | 16 | 113 | 4.8 | 16.1 | 0.00 | 0.00 | 0.00 | 90 | 1017.5 |
| 20260508062514 | 16 | 134 | 1.6 | 12.9 | 0.00 | 0.00 | 0.00 | 91 | 1017.6 |
| 20260508062016 | 16 | 123 | 3.2 | 8.0 | 0.00 | 0.00 | 0.00 | 90 | 1017.5 |
| 20260508061536 | 16 | 169 | 1.6 | 9.7 | 0.00 | 0.00 | 0.00 | 90 | 1017.5 |
| 20260508061014 | 16 | 167 | 1.6 | 9.7 | 0.00 | 0.00 | 0.00 | 90 | 1017.5 |
| 20260508060511 | 16 | 208 | 1.6 | 11.3 | 0.00 | 0.00 | 0.00 | 90 | 1017.5 |
| 20260508060033 | 16 | 129 | 1.6 | 11.3 | 0.00 | 0.00 | 0.00 | 90 | 1017.6 |
| 20260508055513 | 16 | 128 | 3.2 | 9.7 | 0.00 | 0.00 | 0.00 | 90 | 1017.5 |
| 20260508055013 | 16 | 123 | 1.6 | 4.8 | 0.00 | 0.00 | 0.00 | 90 | 1017.5 |
| 20260508054536 | 16 | 0 | 0.0 | 6.4 | 0.00 | 0.00 | 0.00 | 90 | 1017.5 |
| 20260508054014 | 16 | 121 | 0.0 | 6.4 | 0.00 | 0.00 | 0.00 | 90 | 1017.4 |
| 20260508053511 | 16 | 208 | 0.0 | 4.8 | 0.00 | 0.00 | 0.00 | 90 | 1017.3 |
| 20260508053034 | 16 | 208 | 0.0 | 4.8 | 0.00 | 0.00 | 0.00 | 90 | 1017.5 |
| 20260508052515 | 16 | 209 | 0.0 | 4.8 | 0.00 | 0.00 | 0.00 | 90 | 1017.5 |
| 20260508052017 | 16 | 209 | 0.0 | 8.0 | 0.00 | 0.00 | 0.00 | 89 | 1017.5 |
| 20260508051536 | 16 | 191 | 3.2 | 8.0 | 0.00 | 0.00 | 0.00 | 89 | 1017.5 |
| 20260508051020 | 16 | 211 | 1.6 | 6.4 | 0.00 | 0.00 | 0.00 | 89 | 1017.5 |
| 20260508050513 | 16 | 214 | 3.2 | 6.4 | 0.00 | 0.00 | 0.00 | 89 | 1017.5 |
| 20260508050031 | 16 | 231 | 3.2 | 6.4 | 0.00 | 0.00 | 0.00 | 89 | 1017.5 |
| 20260508045512 | 16 | 236 | 3.2 | 6.4 | 0.00 | 0.00 | 0.00 | 89 | 1017.3 |
| 20260508045014 | 16 | 180 | 1.6 | 9.7 | 0.00 | 0.00 | 0.00 | 89 | 1017.4 |
| 20260508044529 | 16 | 180 | 3.2 | 9.7 | 0.00 | 0.00 | 0.00 | 89 | 1017.4 |
| 20260508044014 | 16 | 173 | 1.6 | 9.7 | 0.00 | 0.00 | 0.00 | 89 | 1017.3 |
| 20260508043514 | 16 | 173 | 3.2 | 9.7 | 0.00 | 0.00 | 0.00 | 89 | 1017.3 |
| 20260508043033 | 16 | 76 | 1.6 | 6.4 | 0.00 | 0.00 | 0.00 | 89 | 1017.2 |
| 20260508042513 | 16 | 86 | 1.6 | 6.4 | 0.00 | 0.00 | 0.00 | 89 | 1017.2 |
| 20260508042012 | 16 | 240 | 0.0 | 3.2 | 0.00 | 0.00 | 0.00 | 89 | 1017.0 |
| 20260508041531 | 16 | 0 | 0.0 | 1.6 | 0.00 | 0.00 | 0.00 | 89 | 1017.0 |
| 20260508041013 | 16 | 240 | 0.0 | 3.2 | 0.00 | 0.00 | 0.00 | 89 | 1016.9 |
| 20260508040514 | 16 | 0 | 0.0 | 6.4 | 0.00 | 0.00 | 0.00 | 89 | 1016.8 |
| 20260508040043 | 16 | 240 | 1.6 | 8.0 | 0.00 | 0.00 | 0.00 | 88 | 1016.8 |
| 20260508035512 | 16 | 217 | 3.2 | 8.0 | 0.00 | 0.00 | 0.00 | 88 | 1016.8 |
| 20260508035012 | 16 | 153 | 3.2 | 8.0 | 0.00 | 0.00 | 0.00 | 88 | 1016.7 |
| 20260508034541 | 16 | 216 | 1.6 | 8.0 | 0.00 | 0.00 | 0.00 | 88 | 1016.7 |
| 20260508034011 | 16 | 217 | 1.6 | 8.0 | 0.00 | 0.00 | 0.00 | 88 | 1016.6 |
| 20260508033514 | 16 | 0 | 0.0 | 8.0 | 0.00 | 0.00 | 0.00 | 88 | 1016.5 |
| 20260508033030 | 16 | 217 | 3.2 | 8.0 | 0.00 | 0.00 | 0.00 | 88 | 1016.5 |
| 20260508032512 | 16 | 247 | 1.6 | 6.4 | 0.00 | 0.00 | 0.00 | 88 | 1016.5 |
| 20260508032012 | 16 | 247 | 1.6 | 6.4 | 0.00 | 0.00 | 0.00 | 88 | 1016.4 |
| 20260508031537 | 16 | 184 | 0.0 | 8.0 | 0.00 | 0.00 | 0.00 | 88 | 1016.3 |
| 20260508031010 | 16 | 189 | 1.6 | 8.0 | 0.00 | 0.00 | 0.00 | 88 | 1016.3 |
| 20260508030514 | 16 | 152 | 3.2 | 8.0 | 0.00 | 0.00 | 0.00 | 88 | 1016.2 |
| 20260508030032 | 16 | 188 | 3.2 | 8.0 | 0.00 | 0.00 | 0.00 | 88 | 1016.2 |
| 20260508025511 | 16 | 131 | 1.6 | 8.0 | 0.00 | 0.00 | 0.00 | 89 | 1016.1 |
| 20260508025012 | 16 | 117 | 1.6 | 8.0 | 0.00 | 0.00 | 0.00 | 88 | 1016.0 |
| 20260508024555 | 16 | 162 | 3.2 | 9.7 | 0.00 | 0.00 | 0.00 | 88 | 1016.0 |
| 20260508024011 | 16 | 0 | 3.2 | 9.7 | 0.00 | 0.00 | 0.00 | 88 | 1016.0 |
| 20260508023513 | 16 | 190 | 0.0 | 9.7 | 0.00 | 0.00 | 0.00 | 88 | 1015.8 |
| 20260508023033 | 16 | 189 | 3.2 | 9.7 | 0.00 | 0.00 | 0.00 | 88 | 1015.8 |
| 20260508022516 | 16 | 209 | 1.6 | 9.7 | 0.00 | 0.00 | 0.00 | 87 | 1015.8 |
| 20260508022014 | 16 | 152 | 3.2 | 8.0 | 0.00 | 0.00 | 0.00 | 87 | 1015.7 |
| 20260508021530 | 16 | 155 | 3.2 | 8.0 | 0.00 | 0.00 | 0.00 | 87 | 1015.6 |
| 20260508021012 | 16 | 179 | 1.6 | 8.0 | 0.00 | 0.00 | 0.00 | 86 | 1015.6 |
| 20260508020514 | 17 | 188 | 3.2 | 8.0 | 0.00 | 0.00 | 0.00 | 86 | 1015.6 |
| 20260508020035 | 17 | 167 | 3.2 | 8.0 | 0.00 | 0.00 | 0.00 | 86 | 1015.6 |
| 20260508015513 | 17 | 0 | 1.6 | 11.3 | 0.00 | 0.00 | 0.00 | 86 | 1015.5 |
| 20260508015012 | 17 | 198 | 3.2 | 11.3 | 0.00 | 0.00 | 0.00 | 85 | 1015.6 |
| 20260508014535 | 17 | 188 | 1.6 | 9.7 | 0.00 | 0.00 | 0.00 | 86 | 1015.6 |
| 20260508014014 | 17 | 0 | 1.6 | 9.7 | 0.00 | 0.00 | 0.00 | 86 | 1015.6 |
| 20260508013516 | 17 | 193 | 3.2 | 9.7 | 0.00 | 0.00 | 0.00 | 86 | 1015.6 |
| 20260508013035 | 17 | 153 | 1.6 | 9.7 | 0.00 | 0.00 | 0.00 | 86 | 1015.7 |
| 20260508012513 | 17 | 189 | 1.6 | 11.3 | 0.00 | 0.00 | 0.00 | 85 | 1015.6 |
| 20260508012013 | 17 | 139 | 3.2 | 11.3 | 0.00 | 0.00 | 0.00 | 85 | 1015.7 |
| 20260508011532 | 17 | 178 | 3.2 | 11.3 | 0.00 | 0.00 | 0.00 | 85 | 1015.6 |
| 20260508011011 | 17 | 138 | 4.8 | 11.3 | 0.00 | 0.00 | 0.00 | 84 | 1015.7 |
| 20260508010511 | 17 | 177 | 4.8 | 12.9 | 0.00 | 0.00 | 0.00 | 84 | 1015.6 |
| 20260508010046 | 17 | 155 | 4.8 | 17.7 | 0.00 | 0.00 | 0.00 | 83 | 1015.7 |
| 20260508005513 | 17 | 185 | 4.8 | 17.7 | 0.00 | 0.00 | 0.00 | 83 | 1015.7 |
| 20260508005015 | 17 | 163 | 4.8 | 12.9 | 0.00 | 0.00 | 0.00 | 83 | 1015.5 |
| 20260508004542 | 17 | 195 | 3.2 | 12.9 | 0.00 | 0.00 | 0.00 | 84 | 1015.5 |
| 20260508004013 | 17 | 127 | 4.8 | 12.9 | 0.00 | 0.00 | 0.00 | 84 | 1015.4 |
| 20260508003515 | 17 | 154 | 4.8 | 12.9 | 0.00 | 0.00 | 0.00 | 83 | 1015.5 |
| 20260508003029 | 17 | 170 | 6.4 | 12.9 | 0.00 | 0.00 | 0.00 | 83 | 1015.5 |
| 20260508002512 | 17 | 158 | 6.4 | 12.9 | 0.00 | 0.00 | 0.00 | 83 | 1015.5 |
| 20260508002013 | 18 | 188 | 6.4 | 12.9 | 0.00 | 0.00 | 0.00 | 82 | 1015.4 |
| 20260508001540 | 18 | 158 | 6.4 | 14.5 | 0.00 | 0.00 | 0.00 | 81 | 1015.4 |
| 20260508001010 | 18 | 167 | 4.8 | 14.5 | 0.00 | 0.00 | 0.00 | 81 | 1015.4 |
| 20260508000514 | 18 | 237 | 4.8 | 11.3 | 0.00 | 0.00 | 0.00 | 81 | 1015.4 |
| 20260508000032 | 18 | 180 | 3.2 | 12.9 | 0.00 | 0.00 | 0.00 | 82 | 1015.5 |
| 20260507235510 | 18 | 209 | 4.8 | 12.9 | 0.00 | 0.00 | 0.00 | 82 | 1015.6 |
| 20260507235011 | 18 | 189 | 3.2 | 11.3 | 0.00 | 0.00 | 0.00 | 83 | 1015.7 |
| 20260507234534 | 18 | 244 | 6.4 | 11.3 | 0.00 | 0.00 | 0.00 | 82 | 1015.7 |
| 20260507234013 | 18 | 194 | 3.2 | 9.7 | 0.00 | 0.00 | 0.00 | 82 | 1015.6 |
| 20260507233517 | 18 | 193 | 4.8 | 9.7 | 0.00 | 0.00 | 0.00 | 83 | 1015.6 |
| 20260507233032 | 18 | 244 | 3.2 | 14.5 | 0.00 | 0.00 | 0.00 | 84 | 1015.6 |
| 20260507232515 | 17 | 177 | 3.2 | 14.5 | 0.00 | 0.00 | 0.00 | 84 | 1015.6 |
| 20260507232017 | 17 | 164 | 4.8 | 12.9 | 0.00 | 0.00 | 0.00 | 83 | 1015.6 |
| 20260507231532 | 17 | 194 | 3.2 | 12.9 | 0.00 | 0.00 | 0.00 | 83 | 1015.7 |
| 20260507231010 | 17 | 238 | 6.4 | 12.9 | 0.00 | 0.00 | 0.00 | 83 | 1015.6 |
| 20260507230515 | 17 | 175 | 6.4 | 14.5 | 0.00 | 0.00 | 0.00 | 83 | 1015.7 |
| 20260507230032 | 17 | 182 | 6.4 | 14.5 | 0.00 | 0.00 | 0.00 | 83 | 1015.7 |
| 20260507225513 | 17 | 207 | 6.4 | 14.5 | 0.00 | 0.00 | 0.00 | 83 | 1015.8 |
| 20260507225011 | 17 | 178 | 6.4 | 16.1 | 0.00 | 0.00 | 0.00 | 83 | 1015.8 |
| 20260507224530 | 17 | 234 | 9.7 | 16.1 | 0.00 | 0.00 | 0.00 | 83 | 1015.8 |
| 20260507224010 | 17 | 249 | 8.0 | 16.1 | 0.00 | 0.00 | 0.00 | 82 | 1015.8 |
| 20260507223510 | 18 | 173 | 4.8 | 16.1 | 0.00 | 0.00 | 0.00 | 81 | 1015.8 |
| 20260507223034 | 18 | 252 | 4.8 | 12.9 | 0.00 | 0.00 | 0.00 | 82 | 1015.9 |
| 20260507222516 | 18 | 157 | 4.8 | 12.9 | 0.00 | 0.00 | 0.00 | 81 | 1015.9 |
| 20260507222013 | 18 | 267 | 4.8 | 16.1 | 0.00 | 0.00 | 0.00 | 82 | 1015.8 |
| 20260507221539 | 18 | 182 | 6.4 | 16.1 | 0.00 | 0.00 | 0.00 | 81 | 1015.8 |
| 20260507221013 | 18 | 250 | 6.4 | 17.7 | 0.00 | 0.00 | 0.00 | 82 | 1016.0 |
| 20260507220514 | 18 | 193 | 8.0 | 17.7 | 0.00 | 0.00 | 0.00 | 80 | 1016.0 |
| 20260507220032 | 18 | 196 | 4.8 | 16.1 | 0.00 | 0.00 | 0.00 | 81 | 1016.1 |
| 20260507215514 | 18 | 200 | 8.0 | 16.1 | 0.00 | 0.00 | 0.00 | 81 | 1016.1 |
| 20260507215014 | 18 | 239 | 6.4 | 17.7 | 0.00 | 0.00 | 0.00 | 82 | 1016.3 |
| 20260507214535 | 17 | 236 | 6.4 | 17.7 | 0.00 | 0.00 | 0.00 | 82 | 1016.4 |
| 20260507214013 | 17 | 254 | 8.0 | 17.7 | 0.00 | 0.00 | 0.00 | 82 | 1016.5 |
| 20260507213516 | 17 | 226 | 9.7 | 17.7 | 0.00 | 0.00 | 0.00 | 82 | 1016.6 |
| 20260507213033 | 18 | 250 | 8.0 | 20.9 | 0.00 | 0.00 | 0.00 | 81 | 1016.6 |
| 20260507212511 | 18 | 239 | 8.0 | 20.9 | 0.00 | 0.00 | 0.00 | 82 | 1016.6 |
| 20260507212017 | 18 | 217 | 9.7 | 20.9 | 0.00 | 0.00 | 0.00 | 81 | 1016.6 |
| 20260507211532 | 18 | 244 | 6.4 | 19.3 | 0.00 | 0.00 | 0.00 | 82 | 1016.6 |
| 20260507211018 | 18 | 242 | 8.0 | 20.9 | 0.00 | 0.00 | 0.00 | 82 | 1016.7 |
| 20260507210510 | 17 | 261 | 9.7 | 22.5 | 0.00 | 0.00 | 0.00 | 81 | 1016.7 |
| 20260507210038 | 18 | 184 | 9.7 | 22.5 | 0.00 | 0.00 | 0.00 | 82 | 1016.7 |
| 20260507205513 | 18 | 234 | 9.7 | 20.9 | 0.00 | 0.00 | 0.00 | 81 | 1016.7 |
| 20260507205013 | 18 | 246 | 9.7 | 20.9 | 0.00 | 0.00 | 0.00 | 81 | 1016.7 |
| 20260507204532 | 17 | 177 | 9.7 | 20.9 | 0.00 | 0.00 | 0.00 | 82 | 1016.8 |
| 20260507204014 | 17 | 248 | 9.7 | 19.3 | 0.00 | 0.00 | 0.00 | 82 | 1016.9 |
| 20260507203515 | 17 | 248 | 8.0 | 19.3 | 0.00 | 0.00 | 0.00 | 82 | 1016.9 |
| 20260507203047 | 17 | 236 | 9.7 | 20.9 | 0.00 | 0.00 | 0.00 | 82 | 1016.9 |
| 20260507202513 | 17 | 213 | 9.7 | 20.9 | 0.00 | 0.00 | 0.00 | 81 | 1016.8 |
| 20260507202011 | 18 | 196 | 8.0 | 17.7 | 0.00 | 0.00 | 0.00 | 81 | 1016.8 |
| 20260507201532 | 18 | 187 | 8.0 | 17.7 | 0.00 | 0.00 | 0.00 | 80 | 1016.7 |
| 20260507201013 | 18 | 188 | 6.4 | 19.3 | 0.00 | 0.00 | 0.00 | 81 | 1016.7 |
| 20260507200516 | 18 | 275 | 6.4 | 19.3 | 0.00 | 0.00 | 0.00 | 82 | 1016.8 |
| 20260507200031 | 17 | 248 | 9.7 | 19.3 | 0.00 | 0.00 | 0.00 | 82 | 1017.0 |
| 20260507195513 | 17 | 250 | 6.4 | 17.7 | 0.00 | 0.00 | 0.00 | 82 | 1016.8 |
| 20260507195013 | 17 | 292 | 9.7 | 17.7 | 0.00 | 0.00 | 0.00 | 81 | 1017.0 |
| 20260507194534 | 17 | 256 | 9.7 | 17.7 | 0.00 | 0.00 | 0.00 | 81 | 1016.8 |
| 20260507194014 | 17 | 244 | 8.0 | 17.7 | 0.00 | 0.00 | 0.00 | 82 | 1016.9 |
| 20260507193510 | 18 | 255 | 8.0 | 17.7 | 0.00 | 0.00 | 0.00 | 81 | 1017.0 |
| 20260507193037 | 18 | 229 | 8.0 | 16.1 | 0.00 | 0.00 | 0.00 | 80 | 1016.9 |
| 20260507192513 | 18 | 233 | 6.4 | 16.1 | 0.00 | 0.00 | 0.00 | 81 | 1017.0 |
| 20260507192015 | 18 | 250 | 9.7 | 16.1 | 0.00 | 0.00 | 0.00 | 80 | 1017.0 |
| 20260507191537 | 18 | 255 | 8.0 | 16.1 | 0.00 | 0.00 | 0.00 | 80 | 1017.1 |
| 20260507191017 | 18 | 250 | 6.4 | 16.1 | 0.00 | 0.00 | 0.00 | 81 | 1017.1 |
| 20260507190510 | 18 | 252 | 8.0 | 16.1 | 0.00 | 0.00 | 0.00 | 80 | 1017.1 |
| 20260507190031 | 18 | 238 | 8.0 | 16.1 | 0.00 | 0.00 | 0.00 | 79 | 1017.2 |
| 20260507185512 | 18 | 284 | 6.4 | 16.1 | 0.00 | 0.00 | 0.00 | 80 | 1017.3 |
| 20260507185012 | 17 | 0 | 6.4 | 16.1 | 0.00 | 0.00 | 0.00 | 82 | 1017.4 |
| 20260507184532 | 17 | 242 | 8.0 | 16.1 | 0.00 | 0.00 | 0.00 | 81 | 1017.6 |
| 20260507184014 | 18 | 201 | 8.0 | 17.7 | 0.00 | 0.00 | 0.00 | 81 | 1017.6 |
| 20260507183512 | 17 | 228 | 6.4 | 17.7 | 0.00 | 0.00 | 0.00 | 80 | 1017.7 |
| 20260507183029 | 18 | 259 | 6.4 | 17.7 | 0.00 | 0.00 | 0.00 | 81 | 1017.7 |
| 20260507182513 | 18 | 248 | 9.7 | 17.7 | 0.00 | 0.00 | 0.00 | 79 | 1017.7 |
| 20260507182013 | 18 | 245 | 4.8 | 14.5 | 0.00 | 0.00 | 0.00 | 80 | 1017.7 |
| 20260507181532 | 18 | 242 | 4.8 | 14.5 | 0.00 | 0.00 | 0.00 | 80 | 1017.7 |
| 20260507181015 | 18 | 192 | 4.8 | 17.7 | 0.00 | 0.00 | 0.00 | 80 | 1017.6 |
| 20260507180512 | 17 | 187 | 4.8 | 17.7 | 0.00 | 0.00 | 0.00 | 82 | 1017.6 |
| 20260507180038 | 17 | 261 | 8.0 | 17.7 | 0.00 | 0.00 | 0.00 | 80 | 1017.6 |
| 20260507175511 | 18 | 198 | 3.2 | 11.3 | 0.00 | 0.00 | 0.00 | 81 | 1017.8 |
| 20260507175017 | 18 | 254 | 4.8 | 11.3 | 0.00 | 0.00 | 0.00 | 80 | 1017.7 |
| 20260507174540 | 18 | 218 | 4.8 | 11.3 | 0.00 | 0.00 | 0.00 | 80 | 1017.8 |
| 20260507174015 | 18 | 221 | 4.8 | 11.3 | 0.00 | 0.00 | 0.00 | 81 | 1017.8 |
| 20260507173514 | 18 | 176 | 4.8 | 11.3 | 0.00 | 0.00 | 0.00 | 80 | 1017.8 |
| 20260507173052 | 17 | 217 | 3.2 | 14.5 | 0.00 | 0.00 | 0.00 | 81 | 1017.9 |
| 20260507172514 | 17 | 0 | 4.8 | 14.5 | 0.00 | 0.00 | 0.00 | 82 | 1017.9 |
| 20260507172013 | 17 | 159 | 3.2 | 11.3 | 0.00 | 0.00 | 0.00 | 82 | 1017.8 |
| 20260507171536 | 17 | 209 | 4.8 | 11.3 | 0.00 | 0.00 | 0.00 | 82 | 1017.9 |
| 20260507171014 | 17 | 229 | 3.2 | 12.9 | 0.00 | 0.00 | 0.00 | 83 | 1018.1 |
| 20260507170511 | 17 | 205 | 6.4 | 12.9 | 0.00 | 0.00 | 0.00 | 83 | 1018.0 |
| 20260507170038 | 17 | 245 | 4.8 | 11.3 | 0.00 | 0.00 | 0.00 | 84 | 1017.9 |
| 20260507165516 | 17 | 235 | 4.8 | 11.3 | 0.00 | 0.00 | 0.00 | 83 | 1018.0 |
| 20260507165012 | 17 | 234 | 4.8 | 11.3 | 0.00 | 0.00 | 0.00 | 83 | 1018.0 |
| 20260507164535 | 17 | 243 | 3.2 | 12.9 | 0.00 | 0.00 | 0.00 | 84 | 1017.9 |
| 20260507164013 | 17 | 240 | 4.8 | 12.9 | 0.00 | 0.00 | 0.00 | 85 | 1018.0 |
| 20260507163516 | 16 | 0 | 4.8 | 11.3 | 0.00 | 0.00 | 0.00 | 85 | 1018.0 |
| 20260507163032 | 16 | 233 | 4.8 | 11.3 | 0.00 | 0.00 | 0.00 | 85 | 1017.9 |
| 20260507162520 | 16 | 285 | 4.8 | 11.3 | 0.00 | 0.00 | 0.00 | 85 | 1017.9 |
| 20260507162016 | 16 | 238 | 3.2 | 11.3 | 0.00 | 0.00 | 0.00 | 85 | 1017.9 |
| 20260507161540 | 16 | 237 | 3.2 | 11.3 | 0.00 | 0.00 | 0.00 | 86 | 1017.9 |
| 20260507161013 | 16 | 246 | 3.2 | 11.3 | 0.00 | 0.00 | 0.00 | 87 | 1017.9 |
| 20260507160515 | 16 | 240 | 4.8 | 11.3 | 0.00 | 0.00 | 0.00 | 86 | 1017.9 |
| 20260507160030 | 16 | 234 | 4.8 | 9.7 | 0.00 | 0.00 | 0.00 | 86 | 1017.9 |
| 20260507155516 | 16 | 276 | 1.6 | 11.3 | 0.00 | 0.00 | 0.00 | 87 | 1017.9 |
| 20260507155016 | 16 | 283 | 4.8 | 11.3 | 0.00 | 0.00 | 0.00 | 87 | 1017.9 |
| 20260507154530 | 16 | 261 | 3.2 | 11.3 | 0.00 | 0.00 | 0.00 | 87 | 1017.9 |
| 20260507154012 | 16 | 261 | 1.6 | 11.3 | 0.00 | 0.00 | 0.00 | 88 | 1018.1 |
| 20260507153515 | 16 | 261 | 3.2 | 11.3 | 0.00 | 0.00 | 0.00 | 88 | 1018.1 |
| 20260507153033 | 16 | 261 | 3.2 | 11.3 | 0.00 | 0.00 | 0.00 | 88 | 1018.1 |
| 20260507152516 | 16 | 261 | 4.8 | 11.3 | 0.00 | 0.00 | 0.00 | 88 | 1018.1 |
| 20260507152017 | 16 | 230 | 4.8 | 11.3 | 0.00 | 0.00 | 0.00 | 87 | 1018.1 |
| 20260507151534 | 16 | 240 | 3.2 | 9.7 | 0.00 | 0.00 | 0.00 | 87 | 1018.1 |
| 20260507151011 | 16 | 248 | 1.6 | 6.4 | 0.00 | 0.00 | 0.00 | 88 | 1018.2 |
| 20260507150518 | 16 | 248 | 3.2 | 8.0 | 0.00 | 0.00 | 0.00 | 87 | 1018.1 |
| 20260507150038 | 16 | 248 | 1.6 | 8.0 | 0.00 | 0.00 | 0.00 | 87 | 1018.0 |
| 20260507145513 | 16 | 248 | 1.6 | 8.0 | 0.00 | 0.00 | 0.00 | 86 | 1018.0 |
| 20260507145023 | 16 | 248 | 3.2 | 8.0 | 0.00 | 0.00 | 0.00 | 86 | 1018.1 |
| 20260507144532 | 16 | 0 | 0.0 | 0.0 | 0.00 | 0.00 | 0.00 | 84 | 1018.0 |
| 20260507144014 | 16 | 0 | 0.0 | 0.0 | 0.00 | 0.00 | 0.00 | 83 | 1017.9 |
| 20260507143515 | 16 | 0 | 0.0 | 0.0 | 0.00 | 0.00 | 0.00 | 84 | 1017.9 |
| 20260507143038 | 15 | 0 | 0.0 | 0.0 | 0.00 | 0.00 | 0.00 | 84 | 1017.8 |
| 20260507142511 | 15 | 0 | 0.0 | 0.0 | 0.00 | 0.00 | 0.00 | 85 | 1017.8 |
| 20260507142024 | 14 | 0 | 0.0 | 0.0 | 0.00 | 0.00 | 0.00 | 87 | 1017.7 |
| 20260507141546 | 14 | 0 | 0.0 | 0.0 | 0.00 | 0.00 | 0.00 | 88 | 1017.8 |
| 20260507141010 | 13 | 0 | 0.0 | 0.0 | 0.00 | 0.00 | 0.00 | 88 | 1017.6 |
| 20260507140510 | 13 | 0 | 0.0 | 0.0 | 0.00 | 0.00 | 0.00 | 89 | 1017.8 |
| 20260507140034 | 13 | 0 | 0.0 | 0.0 | 0.00 | 0.00 | 0.00 | 90 | 1017.7 |
| 20260507135510 | 12 | 0 | 0.0 | 0.0 | 0.00 | 0.00 | 0.00 | 89 | 1017.6 |
| 20260507135015 | 12 | 0 | 0.0 | 0.0 | 0.00 | 0.00 | 0.00 | 90 | 1017.5 |
| 20260507134535 | 12 | 0 | 0.0 | 0.0 | 0.00 | 0.00 | 0.00 | 90 | 1017.5 |
| 20260507134014 | 12 | 0 | 0.0 | 1.6 | 0.00 | 0.00 | 0.00 | 91 | 1017.4 |
| 20260507133511 | 12 | 0 | 0.0 | 1.6 | 0.00 | 0.00 | 0.00 | 91 | 1017.3 |
| 20260507133057 | 12 | 0 | 0.0 | 0.0 | 0.00 | 0.00 | 0.00 | 90 | 1017.1 |
| 20260507132520 | 12 | 0 | 0.0 | 3.2 | 0.00 | 0.00 | 0.00 | 90 | 1017.1 |
| 20260507132012 | 12 | 0 | 0.0 | 3.2 | 0.00 | 0.00 | 0.00 | 90 | 1017.1 |
| 20260507131530 | 12 | 0 | 0.0 | 3.2 | 0.00 | 0.00 | 0.00 | 90 | 1017.1 |
| 20260507131010 | 12 | 0 | 0.0 | 0.0 | 0.00 | 0.00 | 0.00 | 90 | 1017.1 |
| 20260507130512 | 12 | 0 | 0.0 | 0.0 | 0.00 | 0.00 | 0.00 | 90 | 1017.1 |
| 20260507130036 | 12 | 0 | 0.0 | 3.2 | 0.00 | 0.00 | 0.00 | 90 | 1017.0 |
| 20260507125514 | 12 | 0 | 0.0 | 3.2 | 0.00 | 0.00 | 0.00 | 90 | 1017.0 |
| 20260507125013 | 12 | 95 | 1.6 | 3.2 | 0.00 | 0.00 | 0.00 | 90 | 1017.0 |
| 20260507124530 | 12 | 0 | 0.0 | 3.2 | 0.00 | 0.00 | 0.00 | 90 | 1017.0 |
| 20260507124013 | 12 | 0 | 0.0 | 1.6 | 0.00 | 0.00 | 0.00 | 90 | 1017.0 |
| 20260507123518 | 12 | 0 | 0.0 | 4.8 | 0.00 | 0.00 | 0.00 | 90 | 1017.0 |
| 20260507123038 | 12 | 95 | 1.6 | 4.8 | 0.00 | 0.00 | 0.00 | 90 | 1016.9 |
| 20260507122513 | 11 | 95 | 1.6 | 4.8 | 0.00 | 0.00 | 0.00 | 89 | 1017.0 |
| 20260507122014 | 12 | 95 | 0.0 | 4.8 | 0.00 | 0.00 | 0.00 | 89 | 1017.0 |
| 20260507121534 | 12 | 0 | 0.0 | 0.0 | 0.00 | 0.00 | 0.00 | 89 | 1016.9 |
| 20260507121011 | 12 | 0 | 0.0 | 0.0 | 0.00 | 0.00 | 0.00 | 89 | 1017.0 |
| 20260507120511 | 12 | 0 | 0.0 | 0.0 | 0.00 | 0.00 | 0.00 | 88 | 1016.9 |
| 20260507120035 | 12 | 0 | 0.0 | 0.0 | 0.00 | 0.00 | 0.00 | 88 | 1016.9 |
| 20260507115510 | 12 | 0 | 0.0 | 0.0 | 0.00 | 0.00 | 0.00 | 89 | 1016.9 |
| 20260507115013 | 12 | 0 | 0.0 | 0.0 | 0.00 | 0.00 | 0.00 | 88 | 1017.0 |
| 20260507114537 | 12 | 0 | 0.0 | 0.0 | 0.00 | 0.00 | 0.00 | 88 | 1017.0 |
| 20260507114014 | 12 | 0 | 0.0 | 0.0 | 0.00 | 0.00 | 0.00 | 88 | 1016.9 |
| 20260507113514 | 12 | 0 | 0.0 | 0.0 | 0.00 | 0.00 | 0.00 | 88 | 1016.8 |
| 20260507113034 | 13 | 0 | 0.0 | 0.0 | 0.00 | 0.00 | 0.00 | 88 | 1016.9 |
| 20260507112514 | 13 | 0 | 0.0 | 0.0 | 0.00 | 0.00 | 0.00 | 88 | 1017.0 |
| 20260507112018 | 13 | 0 | 0.0 | 0.0 | 0.00 | 0.00 | 0.00 | 88 | 1017.1 |
| 20260507111532 | 13 | 0 | 0.0 | 0.0 | 0.00 | 0.00 | 0.00 | 88 | 1017.2 |
| 20260507111013 | 13 | 0 | 0.0 | 0.0 | 0.00 | 0.00 | 0.00 | 88 | 1017.2 |
| 20260507110513 | 13 | 0 | 0.0 | 0.0 | 0.00 | 0.00 | 0.00 | 89 | 1017.1 |
| 20260507110039 | 12 | 0 | 0.0 | 0.0 | 0.00 | 0.00 | 0.00 | 88 | 1017.2 |
| 20260507105511 | 12 | 0 | 0.0 | 0.0 | 0.00 | 0.00 | 0.00 | 88 | 1017.3 |
| 20260507105011 | 12 | 0 | 0.0 | 0.0 | 0.00 | 0.00 | 0.00 | 88 | 1017.4 |
| 20260507104534 | 12 | 0 | 0.0 | 0.0 | 0.00 | 0.00 | 0.00 | 88 | 1017.3 |
| 20260507104014 | 13 | 0 | 0.0 | 0.0 | 0.00 | 0.00 | 0.00 | 88 | 1017.3 |
| 20260507103513 | 13 | 0 | 0.0 | 0.0 | 0.00 | 0.00 | 0.00 | 87 | 1017.3 |
| 20260507103039 | 13 | 0 | 0.0 | 0.0 | 0.00 | 0.00 | 0.00 | 87 | 1017.3 |
| 20260507102511 | 13 | 0 | 0.0 | 4.8 | 0.00 | 0.00 | 0.00 | 87 | 1017.2 |
| 20260507102017 | 13 | 0 | 0.0 | 4.8 | 0.00 | 0.00 | 0.00 | 87 | 1017.3 |
| 20260507101536 | 13 | 95 | 1.6 | 4.8 | 0.00 | 0.00 | 0.00 | 86 | 1017.2 |
| 20260507101011 | 13 | 84 | 1.6 | 3.2 | 0.00 | 0.00 | 0.00 | 87 | 1017.3 |
| 20260507100509 | 13 | 0 | 1.6 | 3.2 | 0.00 | 0.00 | 0.00 | 86 | 1017.1 |
| 20260507100036 | 13 | 0 | 1.6 | 6.4 | 0.00 | 0.00 | 0.00 | 86 | 1017.2 |
| 20260507095516 | 13 | 83 | 0.0 | 6.4 | 0.00 | 0.00 | 0.00 | 86 | 1017.3 |
| 20260507095014 | 13 | 80 | 3.2 | 6.4 | 0.00 | 0.00 | 0.00 | 86 | 1017.3 |
| 20260507094537 | 13 | 86 | 1.6 | 4.8 | 0.00 | 0.00 | 0.00 | 87 | 1017.3 |
| 20260507094020 | 13 | 86 | 0.0 | 3.2 | 0.00 | 0.00 | 0.00 | 86 | 1017.4 |
| 20260507093515 | 13 | 0 | 1.6 | 6.4 | 0.00 | 0.00 | 0.00 | 86 | 1017.4 |
| 20260507093032 | 13 | 86 | 1.6 | 6.4 | 0.00 | 0.00 | 0.00 | 86 | 1017.4 |
| 20260507092513 | 13 | 99 | 3.2 | 6.4 | 0.00 | 0.00 | 0.00 | 86 | 1017.4 |
| 20260507092013 | 13 | 103 | 0.0 | 3.2 | 0.00 | 0.00 | 0.00 | 86 | 1017.5 |
| 20260507091535 | 13 | 0 | 0.0 | 3.2 | 0.00 | 0.00 | 0.00 | 86 | 1017.5 |
| 20260507091011 | 13 | 103 | 0.0 | 9.7 | 0.00 | 0.00 | 0.00 | 86 | 1017.6 |
| 20260507090512 | 13 | 103 | 1.6 | 9.7 | 0.00 | 0.00 | 0.00 | 86 | 1017.7 |
| 20260507090030 | 13 | 96 | 0.0 | 3.2 | 0.00 | 0.00 | 0.00 | 87 | 1017.8 |
| 20260507085510 | 13 | 0 | 0.0 | 3.2 | 0.00 | 0.00 | 0.00 | 87 | 1017.8 |
| 20260507085013 | 13 | 0 | 0.0 | 4.8 | 0.00 | 0.00 | 0.00 | 87 | 1017.9 |
| 20260507084538 | 13 | 96 | 0.0 | 4.8 | 0.00 | 0.00 | 0.00 | 88 | 1018.0 |
| 20260507084012 | 13 | 96 | 0.0 | 6.4 | 0.00 | 0.00 | 0.00 | 88 | 1018.0 |
| 20260507083511 | 13 | 0 | 0.0 | 6.4 | 0.00 | 0.00 | 0.00 | 88 | 1018.0 |
| 20260507083032 | 13 | 96 | 3.2 | 6.4 | 0.00 | 0.00 | 0.00 | 88 | 1018.0 |
| 20260507082510 | 14 | 296 | 0.0 | 4.8 | 0.00 | 0.00 | 0.00 | 89 | 1018.0 |
| 20260507082014 | 14 | 0 | 0.0 | 4.8 | 0.00 | 0.00 | 0.00 | 89 | 1018.2 |
| 20260507081538 | 14 | 0 | 0.0 | 0.0 | 0.00 | 0.00 | 0.00 | 89 | 1018.2 |
| 20260507081013 | 14 | 0 | 0.0 | 0.0 | 0.00 | 0.00 | 0.00 | 89 | 1018.2 |
| 20260507080511 | 14 | 0 | 0.0 | 0.0 | 0.00 | 0.00 | 0.00 | 89 | 1018.2 |
| 20260507080031 | 14 | 0 | 0.0 | 0.0 | 0.00 | 0.00 | 0.00 | 88 | 1018.3 |
| 20260507075510 | 14 | 0 | 0.0 | 0.0 | 0.00 | 0.00 | 0.00 | 88 | 1018.2 |
| 20260507075011 | 14 | 0 | 0.0 | 0.0 | 0.00 | 0.00 | 0.00 | 88 | 1018.2 |
| 20260507074534 | 14 | 0 | 0.0 | 0.0 | 0.00 | 0.00 | 0.00 | 88 | 1018.1 |
| 20260507074013 | 14 | 0 | 0.0 | 0.0 | 0.00 | 0.00 | 0.00 | 87 | 1018.1 |
| 20260507073511 | 14 | 0 | 0.0 | 0.0 | 0.00 | 0.00 | 0.00 | 86 | 1018.1 |
| 20260507073032 | 15 | 0 | 0.0 | 0.0 | 0.00 | 0.00 | 0.00 | 87 | 1018.1 |
| 20260507072513 | 15 | 0 | 0.0 | 0.0 | 0.00 | 0.00 | 0.00 | 87 | 1018.2 |
| 20260507072013 | 15 | 0 | 0.0 | 0.0 | 0.00 | 0.00 | 0.00 | 87 | 1018.2 |
| 20260507071535 | 15 | 0 | 0.0 | 1.6 | 0.00 | 0.00 | 0.00 | 87 | 1018.2 |
| 20260507071013 | 15 | 0 | 0.0 | 3.2 | 0.00 | 0.00 | 0.00 | 87 | 1018.3 |
| 20260507070510 | 15 | 0 | 0.0 | 6.4 | 0.00 | 0.00 | 0.00 | 87 | 1018.2 |
| 20260507070041 | 15 | 0 | 1.6 | 6.4 | 0.00 | 0.00 | 0.00 | 87 | 1018.4 |